Regional Weather Roundup
Issued by NWS

Home | Current Version | Previous Version | Text Only | Print | Product List | Glossary On
Versions: 1 2 3 4 5 6 7 8 9 10 11 12 13 14 15 16 17 18 19 20 21 22 23 24 25 26 27 28 29 30 31 32 33 34 35 36 37 38 39 40 41 42 43 44 45 46 47 48 49 50
084
ASUS44 KLIX 301410
RWRLA
LOUISIANA WEATHER ROUNDUP
NATIONAL WEATHER SERVICE NEW ORLEANS LA
900 AM CDT SAT AUG 30 2014

NOTE: "FAIR" INDICATES FEW OR NO CLOUDS BELOW 12,000 FEET WITH NO
      SIGNIFICANT WEATHER AND/OR OBSTRUCTIONS TO VISIBILITY.
      SKY/WX - SKY CONDITION AND SIGNIFICANT WEATHER.
      TMP - AIR TEMPERATURE.    DP   - DEWPOINT TEMPERATURE.
      RH  - RELATIVE HUMIDITY.  PRES - PRESSURE.
      HX  - HEAT INDEX.         WCI  - WIND CHILL INDEX.

*  THESE STATIONS ARE NOT NWS OR FAA STATIONS AND ARE NOT UNDER
   NWS QUALITY CONTROL.

LAZ040-048-061>063-065-066-069-301500-
SOUTHEAST LOUISIANA

CITY           SKY/WX    TMP DP  RH WIND       PRES   REMARKS
N.O. AUDUBON     N/A     85  78  79 MISG        N/A  HX  98
N.O. INTL ARPT PTSUNNY   85  77  77 SE13      30.01S HX  95
N.O. LAKEFRONT SUNNY     84  77  79 SE12      30.02S
N.O. DOWNTOWN* FAIR      84  75  74 S8        30.02S
SLIDELL        MOSUNNY   84  76  76 SE10      30.02R
BATON ROUGE    CLOUDY    81  76  84 SE9       30.00R
BOOTHVILLE     MOSUNNY   85  80  85 SE9       30.03R HX  99
BELLE CHASSE   PTSUNNY   85  77  77 SE9       30.00S HX  95
BOGALUSA*      FAIR      85  75  72 S7        30.04S
GALLIANO*      NOT AVBL
NEW ROADS*     CLOUDY    79  77  93 SE5       30.00R
GONZALES*      CLOUDY    83  80  88 SE9       29.99R HX  96
HAMMOND*       MOSUNNY   84  75  74 SE10      30.02S
HOUMA*         NOT AVBL
PORT FOURCHON* MOSUNNY   86  79  79 SE15      30.01S HX  99

$$

LAZ041-044-053-054-301500-
SOUTHWEST LOUISIANA

CITY           SKY/WX    TMP DP  RH WIND       PRES   REMARKS
LAKE CHARLES   LGT RAIN  73  72  96 S3        29.96F FOG
LAFAYETTE      HVY RAIN  74  32  21 S5        30.00F
PATTERSON        N/A     81  79  94 SE6       30.00R
SALT POINT       N/A     85  81  88 VRB5      29.96R HX 100
NEW IBERIA     RAIN      76  74  93 NW3       29.99S FOG
CHENAULT AIRPK HVY RAIN  73  72  94 SW10      29.96F

$$

LAZ027-028-301500-
CENTRAL LOUISIANA

CITY           SKY/WX    TMP DP  RH WIND       PRES   REMARKS
FORT POLK      HVY RAIN  73  72  96 NE6       29.96F
ALEXANDRIA INT HVY RAIN  74  73  97 SE8       29.99R FOG
ALEXANDRIA     HVY RAIN  76  74  93 CALM      30.00R FOG

$$

LAZ001-002-301500-
NORTHWEST LOUISIANA

CITY           SKY/WX    TMP DP  RH WIND       PRES   REMARKS
SHREVEPORT     CLOUDY    79  73  83 SE6       29.97S
BARKSDALE AFB  PTSUNNY   77  72  83 SE5       29.98R
DTN SHREVEPORT PTSUNNY   77  72  84 E5        29.97S

$$

LAZ014-016-301500-
NORTHEAST LOUISIANA

CITY           SKY/WX    TMP DP  RH WIND       PRES   REMARKS
MONROE         HVY RAIN  75  73  94 SW7       30.02R FOG
TALLULAH       CLOUDY    79  74  84 E6        30.02R

$$




USA.gov is the U.S. government's official web portal to all federal, state and local government web resources and services.